STARLINK-31823, 59794

Orbit data source: Space-Track

STARLINK-31823, 59794 is a payload satellite owned by SpaceX/Seattle (US) in LEO that was launched on Sat, 18 May 2024 UTC via an FALCON 9 launch vehicle from the Air Force Eastern Test Range (AFETR). Payload-class satellites include a variety of spacecraft equipped with specific instruments for various scientific and technological missions. These include communications satellites like Starlink; space stations such as the ISS; scientific satellites like the Hubble; Earth observation satellites from companies like Planet Labs, Umbra, and HawkEye 360; GPS; miniature CubeSats for education and research; and military/defense satellites.

Loading next visibility...
Identifier
59794, 2024-093N
Orbit
LEO
Last TLE update
10 hours ago
Origin
Manufacturer
SpaceX/Seattle
Mission
Operational spacecraft
Bus & Motor
STARLINK V2M, Unknown motor
Mass
730 kg wet, ~700 kg dry
Launch date (UTC)
2024-05-18 (1 year ago)
Launch vehicle
FALCON 9
Launch site
Air Force Eastern Test Range (AFETR)
Object type
Payload
Rocket body
Debris
Shape & HBR
Unknown
Radar Cross Section
Large (>1 m²)

Expand to show TLE details & history

TLE from 10 hours ago
0 STARLINK-31823
1 59794U 24093N   25182.00215842  .00000245  00000-0  18420-4 0  9992
2 59794  43.0018 190.2451 0001005 273.5559  86.5177 15.27574996 64207
Epoch: 2025-07-01T00:03Z
TLE epoch observation values (Epoch: 2025-07-01T00:03:06.487Z)
Latitude
-0.00007°
Longitude
-89.83587°
Altitude
482.798 km
Speed
7.626 km/s
True Right ascension
12h 40m 58s
True Declination
0° 00' 00"
Sunlit
Object was in daylight at epoch
Visualization orbit readout
Latitude
15.15627°
Longitude
70.99675°
Altitude
482.461 km
Speed
7.627 km/s
Apparent Right ascension
02h 16m 08s
Apparent Declination
-37° 51' 29"
Sunlit
Object is in daylight
Visualization observer readout
Local Sidereal Time
21:47:37
Azimuth
132.544° SE
Elevation
-9.116°
Doppler factor
1
Orbital elements
Apogee altitude
485.699 km
Perigee altitude
484.319 km
Semi-major axis
6,863.146 km
Eccentricity
0.0001
Inclination
43.0018°
RAAN
190.2451°
Arg. of periapsis
273.5559°
True anomaly
Unknown
Mean anomaly
86.5177°
Eccentric anomaly
Unknown
Mean motion
3.81732 °/min
Orbital period
94.31 mins
BSTAR
0.00001842
Loading maneuver chart data...
Loading SW <> Apogee altitude chart data...
Loading historical data...
Loading historical data...
Loading historical data...
Loading historical data...
Loading historical data...
Loading historical data...
Loading historical data...

STARLINK-31823 Visibility forecast

Observer location: undefined°, undefined°

Span
Click to sort rows by Start time (UTC) header in descending order
Start Az.
Max El. time (UTC)
Max El. Az.
Max El.
End time (UTC)
End Az.
4 mins2025-07-02 02:55:13.589Z180.382° SSW2025-07-02 02:57:13.589Z141.513° SSE18.145°2025-07-02 02:59:13.589Z104.587° ESE
6 mins2025-07-02 04:33:13.589Z244.88° WSW2025-07-02 04:35:13.589Z227.701° WSW42.324°2025-07-02 04:39:13.589Z73.044° E
6 mins2025-07-02 06:12:13.589Z284.803° WNW2025-07-02 06:15:13.589Z24.393° NE36.869°2025-07-02 06:18:13.589Z74.071° E
5 mins2025-07-02 07:52:13.589Z294.629° NW2025-07-02 07:54:13.589Z53.898° ENE43.287°2025-07-02 07:57:13.589Z100.285° ESE
4 mins2025-07-02 09:31:13.589Z253.373° W2025-07-02 09:33:13.589Z195.652° SSW26.452°2025-07-02 09:35:13.589Z155.662° SSE
|